Simultaneous Nadir Overpasses (SNOs) Predictions

Prediction of SNOs between NOAA-15 and METOP-C Satellite Orbit:

Table of predicted SNOs for the next 14.0 days since TLE Epoch: 1/29/2022
Index Date (NOAA-15) Time (NOAA-15) Lat,Lon (NOAA-15) SZA (NOAA-15 ) Date (METOP-C) Time (METOP-C) Lat,Lon (METOP-C) SZA (METOP-C ) Distance(km) Time Diff (sec)
1 01/31/2022 06:32:46 81.04, 119.87 99.90 01/31/2022 06:31:32 81.01, 119.37 99.81 9.14 74
2 01/31/2022 07:23:21 -81.05, -72.92 80.12 01/31/2022 07:22:12 -81.03, -72.84 80.15 2.10 69
3 01/31/2022 08:13:48 81.04, 94.62 99.89 01/31/2022 08:12:52 81.04, 94.62 99.86 0.24 56
4 01/31/2022 09:04:22 -81.03, -97.80 80.12 01/31/2022 09:03:33 -81.04, -97.96 80.14 2.97 49
5 01/31/2022 09:54:50 81.04, 69.37 99.87 01/31/2022 09:54:13 81.05, 69.50 99.87 2.37 37
6 01/31/2022 10:45:25 -81.05,-123.43 80.16 01/31/2022 10:44:55 -81.04,-123.45 80.18 1.29 30
7 01/31/2022 11:35:52 81.04, 44.12 99.85 01/31/2022 11:35:35 81.04, 44.00 99.83 1.94 17
8 01/31/2022 12:26:27 -81.05,-148.68 80.18 01/31/2022 12:26:16 -81.04,-148.57 80.17 1.86 11
9 01/31/2022 13:16:54 81.04, 18.86 99.83 01/31/2022 13:16:56 81.05, 18.88 99.84 1.15 2
10 01/31/2022 14:07:29 -81.05,-173.93 80.20 01/31/2022 14:07:38 -81.04,-174.06 80.21 2.42 9
11 01/31/2022 14:57:57 81.06, -6.76 99.79 01/31/2022 14:58:18 81.04, -6.61 99.80 2.86 21
12 01/31/2022 15:48:31 -81.05, 160.81 80.22 01/31/2022 15:48:59 -81.05, 160.81 80.20 0.13 28
13 01/31/2022 16:38:58 81.04, -31.64 99.79 01/31/2022 16:39:39 81.05, -31.73 99.80 2.17 41
14 01/31/2022 17:29:33 -81.05, 135.56 80.24 01/31/2022 17:30:20 -81.06, 135.69 80.20 2.56 47
15 01/31/2022 18:20:01 81.06, -57.26 99.75 01/31/2022 18:21:01 81.05, -57.23 99.77 1.16 60



Historial Predications of SNOs between NOAA-15 and METOP-C
